Regional Weather Roundup
Issued by NWS

Home | Current Version | Previous Version | Graphics & Text | Print | Product List | Glossary On
Versions: 1 2 3 4 5 6 7 8 9 10 11 12 13 14 15 16 17 18 19 20 21 22 23 24 25 26 27 28 29 30 31 32 33 34 35 36 37 38 39 40 41 42 43 44 45 46 47 48 49 50
000
ASUS43 KMKX 242359
RWRWI

WISCONSIN REGIONAL WEATHER ROUNDUP
NATIONAL WEATHER SERVICE MILWAUKEE/SULLIVAN WI
700 PM CDT TUE APR 24 2018

NOTE: "FAIR" INDICATES FEW OR NO CLOUDS BELOW 12,000 FEET WITH NO
SIGNIFICANT WEATHER AND/OR OBSTRUCTIONS TO VISIBILITY.

WIZ001-002-006>008-014>016-023>028-250100-
NORTHWEST WISCONSIN

CITY           SKY/WX    TMP DP  RH WIND       PRES   REMARKS
SUPERIOR ARPT  FAIR      55  26  32 NW16      30.18R
ASHLAND        FAIR      49  33  54 SE3       30.18S
6HR MIN TEMP:  46; 6HR MAX TEMP:  50;

HAYWARD        FAIR      53  33  46 VRB3      30.17S
6HR MIN TEMP:  49; 6HR MAX TEMP:  57; 6HR PCP: TRACE;

SIREN          FAIR      55  29  36 N7        30.18S
CUMBERLAND     FAIR      50  32  50 N13G18    30.17S
RICE LAKE      FAIR      51  36  55 N6        30.19R
6HR MIN TEMP:  50; 6HR MAX TEMP:  62;

CHETEK         FAIR      51  37  58 N9        30.16S
LADYSMITH      CLOUDY    47  36  67 N8        30.18R
6HR MIN TEMP:  46; 6HR MAX TEMP:  63;

EAU CLAIRE     NOT AVBL
MENOMONIE      FAIR      54  34  46 N14       30.15S
6HR MIN TEMP:  54; 6HR MAX TEMP:  67;

NEW RICHMOND   FAIR      54  36  49 N13       30.18R
OSCEOLA        FAIR      56  34  44 NW13      30.20S
$$

WIZ003>005-009-010-017-018-250100-
NORTH CENTRAL WISCONSIN

CITY           SKY/WX    TMP DP  RH WIND       PRES   REMARKS
MANITOWISH WTR CLOUDY    39  39 100 CALM      30.16F
ARBOR VITAE    RAIN      42  38  87 N7        30.16R
WOODRUFF       RAIN      42  38  87 N7        30.16R
RHINELANDER    LGT RAIN  44  30  57 N8G18     30.14R
6HR MIN TEMP:  44; 6HR MAX TEMP:  62; 6HR PCP: TRACE;

EAGLE RIVER    LGT RAIN  40  32  73 N7        30.15R
6HR MIN TEMP:  40; 6HR MAX TEMP:  58;

LAND O LAKES   LGT RAIN  39  35  85 CALM      30.18R
6HR MIN TEMP:  39; 6HR MAX TEMP:  56;

PHILLIPS       CLOUDY    40  37  89 N5        30.16S
6HR MIN TEMP:  40; 6HR MAX TEMP:  61;

TOMAHAWK       CLOUDY    46  28  49 N13       30.14R
MEDFORD        CLOUDY    48  30  50 N16G22    30.12R
MERRILL        CLOUDY    52  31  44 N16G22    30.11R
$$

WIZ029-030-035-036-043>047-250100-
CENTRAL WISCONSIN

CITY           SKY/WX    TMP DP  RH WIND       PRES   REMARKS
WAUSAU         CLOUDY    56  30  37 N13G26    30.06R
6HR MIN TEMP:  56; 6HR MAX TEMP:  70;

MOSINEE        CLOUDY    57  30  35 N20G25    30.07R
MARSHFIELD     CLOUDY    54  33  45 N22       30.06R
6HR MIN TEMP:  54; 6HR MAX TEMP:  70;

STEVENS POINT  CLOUDY    61  33  35 N9        30.04R
WAUPACA        CLOUDY    64  27  24 NE5       30.03R
6HR MIN TEMP:  64; 6HR MAX TEMP:  71;

WAUTOMA        CLOUDY    65  32  29 E6        30.01R
6HR MIN TEMP:  65; 6HR MAX TEMP:  71;

WISC RAPIDS    CLOUDY    63  35  35 N12       30.04R
6HR MIN TEMP:  63; 6HR MAX TEMP:  73;

CAMP DOUGLAS   NOT AVBL
$$

WIZ011>013-019>022-031-037>040-048>050-250100-
NORTHEAST WISCONSIN

CITY           SKY/WX    TMP DP  RH WIND       PRES   REMARKS
ANTIGO         CLOUDY    52  34  50 N15       30.08R
SHAWANO        CLOUDY    53  35  50 E9        30.06R
6HR MIN TEMP:  52; 6HR MAX TEMP:  67;

OCONTO         CLOUDY    53  32  45 NE7       30.07R
STURGEON BAY   CLOUDY    52  31  44 N9        30.08R
6HR MIN TEMP:  52; 6HR MAX TEMP:  62;

GREEN BAY      MOCLDY    51  33  50 NE23G30   30.06R
6HR MIN TEMP:  51; 6HR MAX TEMP:  65;

MANITOWOC      FAIR      52  33  48 NE10G18   30.05R
6HR MIN TEMP:  52; 6HR MAX TEMP:  60;

APPLETON       MOCLDY    57  28  33 NE14      30.02R
CLINTONVILLE   MOCLDY    56  32  39 E8        30.05R
6HR MIN TEMP:  56; 6HR MAX TEMP:  66;

OSHKOSH        FAIR      60  40  47 NE7       30.01S
6HR MIN TEMP:  60; 6HR MAX TEMP:  67;

$$

WIZ032>034-041-042-053>061-250100-
SOUTHWEST WISCONSIN

CITY           SKY/WX    TMP DP  RH WIND       PRES   REMARKS
LA CROSSE      MOCLDY    69  36  29 N16G22    30.04S
6HR MIN TEMP:  69; 6HR MAX TEMP:  76;

SPARTA         CLOUDY    66  38  36 NW6       30.05S
VIROQUA        CLOUDY    64  39  40 N10G18    30.05R
6HR MIN TEMP:  64; 6HR MAX TEMP:  70;

BOSCOBEL       CLOUDY    71  37  28 N13       30.01R
6HR MIN TEMP:  71; 6HR MAX TEMP:  77; 6HR PCP: TRACE;

PRAIRIE DU CHI CLOUDY    70  32  24 NW8       30.01S
PLATTEVILLE    FAIR      70  35  27 N12       30.00S
$$

WIZ056-057-062-063-064-067-068-250100-
SOUTH CENTRAL WISCONSIN

CITY           SKY/WX    TMP DP  RH WIND       PRES   REMARKS
REEDSBURG      CLOUDY    66  35  31 N8        30.01R
6HR MIN TEMP:  66; 6HR MAX TEMP:  72;

BARABOO/DELLS  CLOUDY    67  30  25 N7        30.00S
LONE ROCK      NOT AVBL
MINERAL POINT  MOCLDY    70  32  24 N7        30.00S
MADISON        MOCLDY    64  31  28 NE12      29.99R
6HR MIN TEMP:  64; 6HR MAX TEMP:  73;

MIDDLETON      CLOUDY    68  31  25 E9        30.00R
WATERTOWN      FAIR      65  38  37 N12       29.99S
MONROE         FAIR      70  30  23 N7        29.98S
JANESVILLE     PTCLDY    70  18  13 N9        29.98S
$$

WIZ051-052-058>065-066-070>072-250100-
SOUTHEAST WISCONSIN

CITY           SKY/WX    TMP DP  RH WIND       PRES   REMARKS
MILWAUKEE      MOCLDY    48  42  80 NE6       30.02R
6HR MIN TEMP:  48; 6HR MAX TEMP:  61;

WAUKESHA       NOT AVBL
MILWAUKEE/TIMM PTCLDY    55  45  67 NE7       30.03R
RACINE         FAIR      47  42  83 N6        30.02S
6HR MIN TEMP:  47; 6HR MAX TEMP:  61;

BURLINGTON     FAIR      62  47  58 E8        30.00R
KENOSHA        FAIR      54  46  74 NE7       30.00S
6HR MIN TEMP:  54; 6HR MAX TEMP:  63;

FOND DU LAC    FAIR      62  37  39 NE7       30.01S
6HR MIN TEMP:  62; 6HR MAX TEMP:  66;

SHEBOYGAN      FAIR      54  49  83 NE12      30.03R
6HR MIN TEMP:  54; 6HR MAX TEMP:  63;

WEST BEND      FAIR      57  46  67 E5        30.01S
JUNEAU         FAIR      64  37  37 N8        30.02R
$$

LSZ147-162-250100-
LAKE SUPERIOR

STATION/POSITION TIME  TEMP    WIND        PRES    WAVE
                       AIR SEA DIR/SP/G            HT/PER
                 (UTC) (F)     (DEG/KT/KT) (MB)    (FT/S)
DEVILS ISLAND    2300   47     150/  6/  9 1022.5R
SAXON HARBOR     2340   50      CALM  /  2 1021.7S
$$

LMZ867-665-643>646-250100-
LAKE MICHIGAN

STATION/POSITION TIME  TEMP    WIND        PRES    WAVE
                       AIR SEA DIR/SP/G            HT/PER
                 (UTC) (F)     (DEG/KT/KT) (MB)    (FT/S)
NORTHPORT PIER   2340   45                 1018.6R
KEWAUNEE LAKESHO 2330   45      20/  5/  7 1016.9F
SHEBOYGAN LAKESH 2300   45      10/  8/  9 1016.9F
PORT WASHINGTON  2330   47      70/  4/  6 1017.3F
MILWAUKEE LAKESH 2330   45      30/ 10/ 10   N/A
KENOSHA   LAKESH 2300   44                 1015.9
$$

TC  - TEMPERATURE IN CELSIUS
VSB - VISIBILITY IN STATUTE MILES
WCI - WIND CHILL INDEX
HX  - HEAT INDEX




USA.gov is the U.S. government's official web portal to all federal, state and local government web resources and services.